Lincoln, CA

11:28 PM PST on January 16, 2018 (GMT -0800)
Lincoln Regional-Harder

Weather History for KLHM - September, 2013

Change the Weather History Date:

Thursday, September 26, 2013

  Actual Average (KAUN) Record (KAUN)
Temperature  
Mean Temperature 60 °F -  
Max Temperature 75 °F 81 °F 99 °F (1963)
Min Temperature 46 °F 55 °F 39 °F (1948)
Degree Days  
Heating Degree Days 4    
Growing Degree Days 10 (Base 50)    
Moisture  
Dew Point 36 °F    
Average Humidity 45    
Maximum Humidity 71    
Minimum Humidity 21    
Precipitation  
Precipitation 0.00 in - - ()
Sea Level Pressure  
Sea Level Pressure 29.87 in    
Wind  
Wind Speed 12 mph (NNW)    
Max Wind Speed 21 mph    
Max Gust Speed 26 mph    
Visibility 10 miles    
Events      
Averages and records for this station are not official NWS values.
T = Trace of Precipitation, MM = Missing Value Source: NWS Daily Summary

Daily Weather History Graph

Daily Weather History Graph

Search for Another Location

Airport or City:

Trip Planner

Search our weather history database for the weather conditions in past years. The results will help you decide how hot, cold, wet, or windy it might be!

Date:

Astronomy

Sep. 26, 2013 Rise Set
Actual Time 6:57 AM PDT 6:55 PM PDT
Civil Twilight 6:30 AM PDT 7:22 PM PDT
Nautical Twilight 5:59 AM PDT 7:52 PM PDT
Astronomical Twilight 5:28 AM PDT 8:24 PM PDT
Moon No Moon Rise 1:50 PM PDT (9/26)
Length of Visible Light 12h 51m
Length of Day
11h 58m
Waning Gibbous, 53% of the Moon is Illuminated
Sep 26
Waning Gibbous
Sep 26
Last Quarter
Oct 4
New
Oct 11
First Quarter
Oct 18
Full

Hourly Weather History & Observations

Time (PDT) Temp. Windchill Dew Point Humidity Pressure Visibility Wind Dir Wind Speed Gust Speed Precip Events Conditions
12:15 AM 53.6 °F - 41.0 °F 62% 29.81 in 10.0 mi North 6.9 mph - N/A   Clear
12:35 AM 53.6 °F - 39.2 °F 58% 29.81 in 10.0 mi NNW 9.2 mph - N/A   Clear
12:55 AM 51.8 °F - 39.2 °F 62% 29.81 in 10.0 mi NNW 9.2 mph - N/A   Clear
1:15 AM 51.8 °F - 39.2 °F 62% 29.81 in 10.0 mi NNW 9.2 mph - N/A   Clear
1:35 AM 50.0 °F - 39.2 °F 66% 29.81 in 10.0 mi NNW 9.2 mph - N/A   Clear
1:55 AM 50.0 °F - 41.0 °F 71% 29.81 in 10.0 mi NNW 9.2 mph - N/A   Clear
2:15 AM 50.0 °F - 41.0 °F 71% 29.81 in 10.0 mi NNW 10.4 mph - N/A   Clear
2:35 AM 50.0 °F - 41.0 °F 71% 29.81 in 10.0 mi NNW 13.8 mph - N/A   Clear
2:55 AM 50.0 °F - 41.0 °F 71% 29.81 in 10.0 mi NNW 11.5 mph - N/A   Clear
3:15 AM 50.0 °F - 41.0 °F 71% 29.82 in 10.0 mi NNW 15.0 mph 20.7 mph N/A   Clear
3:35 AM 50.0 °F - 39.2 °F 66% 29.82 in 10.0 mi NNW 15.0 mph - N/A   Clear
3:55 AM 50.0 °F - 39.2 °F 66% 29.82 in 10.0 mi NNW 15.0 mph - N/A   Clear
4:15 AM 50.0 °F - 39.2 °F 66% 29.82 in 10.0 mi NNW 11.5 mph - N/A   Clear
4:35 AM 50.0 °F - 39.2 °F 66% 29.83 in 10.0 mi NNW 13.8 mph - N/A   Clear
4:55 AM 50.0 °F - 39.2 °F 66% 29.83 in 10.0 mi NNW 13.8 mph - N/A   Clear
5:15 AM 50.0 °F - 39.2 °F 66% 29.83 in 10.0 mi NNW 11.5 mph 16.1 mph N/A   Clear
5:35 AM 50.0 °F - 39.2 °F 66% 29.83 in 10.0 mi NNW 12.7 mph 18.4 mph N/A   Clear
5:55 AM 48.2 °F - 39.2 °F 71% 29.83 in 10.0 mi North 11.5 mph - N/A   Clear
6:15 AM 48.2 °F - 39.2 °F 71% 29.84 in 10.0 mi North 11.5 mph - N/A   Clear
6:35 AM 46.4 °F 40.7 °F 37.4 °F 71% 29.84 in 10.0 mi NNW 12.7 mph - N/A   Clear
6:55 AM 46.4 °F 40.4 °F 37.4 °F 71% 29.85 in 10.0 mi NNW 13.8 mph - N/A   Clear
7:15 AM 46.4 °F 40.7 °F 37.4 °F 71% 29.85 in 10.0 mi NNW 12.7 mph - N/A   Clear
7:35 AM 50.0 °F - 37.4 °F 62% 29.85 in 10.0 mi NNW 16.1 mph - N/A   Clear
7:55 AM 50.0 °F - 39.2 °F 66% 29.85 in 10.0 mi NNW 15.0 mph - N/A   Clear
8:15 AM 51.8 °F - 39.2 °F 62% 29.85 in 10.0 mi NNW 16.1 mph - N/A   Clear
8:35 AM 53.6 °F - 37.4 °F 54% 29.86 in 10.0 mi NNW 18.4 mph 24.2 mph N/A   Clear
8:55 AM 55.4 °F - 37.4 °F 51% 29.87 in 10.0 mi NNW 15.0 mph 24.2 mph N/A   Clear
9:15 AM 57.2 °F - 37.4 °F 48% 29.88 in 10.0 mi NNW 19.6 mph 25.3 mph N/A   Clear
9:35 AM 59.0 °F - 37.4 °F 45% 29.88 in 10.0 mi NW 13.8 mph - N/A   Clear
9:55 AM 62.6 °F - 35.6 °F 37% 29.88 in 10.0 mi NNW 20.7 mph - N/A   Clear
10:15 AM 62.6 °F - 35.6 °F 37% 29.88 in 10.0 mi NNW 18.4 mph - N/A   Clear
10:35 AM 64.4 °F - 35.6 °F 34% 29.89 in 10.0 mi NNW 16.1 mph 23.0 mph N/A   Clear
10:55 AM 68.0 °F - 33.8 °F 28% 29.89 in 10.0 mi NNW 16.1 mph 20.7 mph N/A   Clear
11:15 AM 68.0 °F - 33.8 °F 28% 29.89 in 10.0 mi NW 16.1 mph - N/A   Clear
11:35 AM 69.8 °F - 32.0 °F 25% 29.89 in 10.0 mi NW 16.1 mph 23.0 mph N/A   Clear
11:55 AM 69.8 °F - 33.8 °F 27% 29.88 in 10.0 mi NW 15.0 mph 21.9 mph N/A   Clear
12:15 PM 69.8 °F - 33.8 °F 27% 29.88 in 10.0 mi NW 16.1 mph 24.2 mph N/A   Clear
12:35 PM 71.6 °F - 32.0 °F 23% 29.88 in 10.0 mi WNW 18.4 mph 25.3 mph N/A   Clear
12:55 PM 71.6 °F - 32.0 °F 23% 29.88 in 10.0 mi NW 13.8 mph 25.3 mph N/A   Clear
1:15 PM 71.6 °F - 32.0 °F 23% 29.87 in 10.0 mi NW 15.0 mph 21.9 mph N/A   Clear
1:35 PM 73.4 °F - 32.0 °F 22% 29.86 in 10.0 mi NNW 15.0 mph 21.9 mph N/A   Clear
1:55 PM 73.4 °F - 32.0 °F 22% 29.86 in 10.0 mi NW 17.3 mph 23.0 mph N/A   Clear
2:15 PM 73.4 °F - 32.0 °F 22% 29.86 in 10.0 mi NW 17.3 mph 21.9 mph N/A   Clear
2:35 PM 73.4 °F - 32.0 °F 22% 29.85 in 10.0 mi WNW 17.3 mph 24.2 mph N/A   Clear
2:55 PM 73.4 °F - 32.0 °F 22% 29.85 in 10.0 mi WNW 17.3 mph 21.9 mph N/A   Clear
3:15 PM 75.2 °F - 32.0 °F 21% 29.85 in 10.0 mi NW 16.1 mph 25.3 mph N/A   Clear
3:35 PM 75.2 °F - 32.0 °F 21% 29.85 in 10.0 mi NW 18.4 mph 25.3 mph N/A   Clear
3:55 PM 75.2 °F - 32.0 °F 21% 29.85 in 10.0 mi NW 19.6 mph 26.5 mph N/A   Clear
4:15 PM 73.4 °F - 32.0 °F 22% 29.85 in 10.0 mi NW 17.3 mph 23.0 mph N/A   Clear
4:35 PM 75.2 °F - 32.0 °F 21% 29.85 in 10.0 mi NW 18.4 mph 25.3 mph N/A   Clear
4:55 PM 73.4 °F - 32.0 °F 22% 29.85 in 10.0 mi NW 17.3 mph 21.9 mph N/A   Clear
5:15 PM 73.4 °F - 32.0 °F 22% 29.86 in 10.0 mi NW 16.1 mph 23.0 mph N/A   Clear
5:35 PM 73.4 °F - 32.0 °F 22% 29.86 in 10.0 mi NW 12.7 mph 21.9 mph N/A   Clear
5:55 PM 71.6 °F - 32.0 °F 23% 29.86 in 10.0 mi NW 15.0 mph 19.6 mph N/A   Clear
6:15 PM 71.6 °F - 32.0 °F 23% 29.87 in 10.0 mi NW 10.4 mph 20.7 mph N/A   Clear
6:35 PM 69.8 °F - 33.8 °F 27% 29.87 in 10.0 mi NNW 9.2 mph - N/A   Clear
6:55 PM 68.0 °F - 33.8 °F 28% 29.88 in 10.0 mi NNW 6.9 mph - N/A   Clear
7:15 PM 64.4 °F - 33.8 °F 32% 29.88 in 10.0 mi NNW 6.9 mph - N/A   Clear
7:35 PM 60.8 °F - 33.8 °F 36% 29.89 in 10.0 mi NNW 6.9 mph - N/A   Clear
7:55 PM 59.0 °F - 35.6 °F 42% 29.90 in 10.0 mi North 6.9 mph - N/A   Clear
8:15 PM 60.8 °F - 35.6 °F 39% 29.91 in 10.0 mi North 8.1 mph - N/A   Clear
8:35 PM 59.0 °F - 35.6 °F 42% 29.91 in 10.0 mi North 6.9 mph - N/A   Clear
8:55 PM 59.0 °F - 35.6 °F 42% 29.92 in 10.0 mi North 6.9 mph - N/A   Clear
9:15 PM 59.0 °F - 35.6 °F 42% 29.93 in 10.0 mi NNW 6.9 mph - N/A   Clear
9:35 PM 57.2 °F - 35.6 °F 44% 29.93 in 10.0 mi NNW 5.8 mph - N/A   Clear
9:55 PM 53.6 °F - 37.4 °F 54% 29.94 in 10.0 mi North 6.9 mph - N/A   Clear
10:15 PM 53.6 °F - 37.4 °F 54% 29.94 in 10.0 mi NNW 5.8 mph - N/A   Clear
10:35 PM 51.8 °F - 37.4 °F 58% 29.95 in 10.0 mi NW 6.9 mph - N/A   Clear
10:55 PM 53.6 °F - 39.2 °F 58% 29.96 in 10.0 mi NW 10.4 mph - N/A   Clear
11:15 PM 53.6 °F - 37.4 °F 54% 29.96 in 10.0 mi NNW 9.2 mph - N/A   Clear
11:35 PM 53.6 °F - 35.6 °F 51% 29.96 in 10.0 mi NNW 11.5 mph - N/A   Clear
11:55 PM 53.6 °F - 37.4 °F 54% 29.96 in 10.0 mi NNW 9.2 mph - N/A   Clear